St. Catharines Third Ave

*Note: All times are displayed in the local standard time of the station location.
**Rain - Equipment is designed to accurately record liquid precipitation; under conditions when precipitation is not in liquid form, the data displayed may not properly reflect rainfall values.

Date Max Temp
(°C)
Min Temp
(°C)
Avg Temp
(°C)
Rain (mm) Avg RH (%)
Fri, Feb 15, 2019 5.2 -4.2 0.8 2.6 78.1
Thu, Feb 14, 2019 3.4 -4.5 -0.7 0.0 71.5
Wed, Feb 13, 2019 0.8 -4.5 -2.4 0.2 78.8
Tue, Feb 12, 2019 2.2 -5.2 -2.2 11.4 89.4
Mon, Feb 11, 2019 -1.9 -4.7 -3.3 0.0 72.6
Sun, Feb 10, 2019 -2.8 -10.3 -6.0 0.0 72.9
Sat, Feb 09, 2019 -3.8 -9.8 -6.9 0.0 63.4
DateTime Avg Temp (°C) Rain (mm) RH (%)
Sat, Feb 16, 2019 16:00 -1.7 0.0 58.2
Sat, Feb 16, 2019 15:00 -2.1 0.0 59.9
Sat, Feb 16, 2019 14:00 -2.4 0.0 60.6
Sat, Feb 16, 2019 13:00 -2.8 0.0 60.3
Sat, Feb 16, 2019 12:00 -3.4 0.0 62.8
Sat, Feb 16, 2019 11:00 -3.2 0.0 63.0
Sat, Feb 16, 2019 10:00 -3.6 0.0 64.0
Sat, Feb 16, 2019 09:00 -3.5 0.0 61.6
Sat, Feb 16, 2019 08:00 -4.1 0.0 64.9
Sat, Feb 16, 2019 07:00 -3.9 0.0 68.2
Sat, Feb 16, 2019 06:00 -3.2 0.0 69.4
Sat, Feb 16, 2019 05:00 -3.3 0.0 78.8
Sat, Feb 16, 2019 04:00 -3.6 0.0 78.7
Sat, Feb 16, 2019 03:00 -3.6 0.0 77.3
Sat, Feb 16, 2019 02:00 -3.7 0.0 74.6
Sat, Feb 16, 2019 01:00 -4.0 0.0 72.9
Sat, Feb 16, 2019 00:00 -4.0 0.0 71.1
Fri, Feb 15, 2019 23:00 -4.1 0.0 69.8
Fri, Feb 15, 2019 22:00 -3.8 0.0 68.9
Fri, Feb 15, 2019 21:00 -3.2 0.0 65.3
Fri, Feb 15, 2019 20:00 -2.3 0.0 67.2
Fri, Feb 15, 2019 19:00 -1.9 0.0 65.1
Fri, Feb 15, 2019 18:00 -1.3 0.0 64.3
Fri, Feb 15, 2019 17:00 -0.4 0.0 64.1
Fri, Feb 15, 2019 16:00 0.3 0.0 66.4
Fri, Feb 15, 2019 15:00 0.7 0.0 67.9
Fri, Feb 15, 2019 14:00 1.7 0.0 65.2
Fri, Feb 15, 2019 13:00 2.5 0.0 62.1
Fri, Feb 15, 2019 12:00 2.8 0.0 68.6
Fri, Feb 15, 2019 11:00 3.8 0.0 73.8
Fri, Feb 15, 2019 10:00 4.3 0.0 87.3
Fri, Feb 15, 2019 09:00 3.6 0.0 99.9
Fri, Feb 15, 2019 08:00 3.8 0.0 99.9
Fri, Feb 15, 2019 07:00 3.8 0.4 99.9
Fri, Feb 15, 2019 06:00 3.8 1.2 99.5
Fri, Feb 15, 2019 05:00 4.0 0.6 95.9
Fri, Feb 15, 2019 04:00 3.7 0.2 85.6
Fri, Feb 15, 2019 03:00 1.0 0.2 89.8
Fri, Feb 15, 2019 02:00 0.1 0.0 88.4
Fri, Feb 15, 2019 01:00 0.0 0.0 87.7
Fri, Feb 15, 2019 00:00 0.1 0.0 85.7
Thu, Feb 14, 2019 23:00 0.0 0.0 84.4
Thu, Feb 14, 2019 22:00 -0.2 0.0 84.0
Thu, Feb 14, 2019 21:00 -0.2 0.0 79.3
Thu, Feb 14, 2019 20:00 -0.3 0.0 75.9
Thu, Feb 14, 2019 19:00 0.9 0.0 66.9
Thu, Feb 14, 2019 18:00 1.9 0.0 61.1
Thu, Feb 14, 2019 17:00 2.5 0.0 57.6


asterix Register now to access more data! asterix